Huntington, WV

11:46 AM EST on January 16, 2017 (GMT -0500)
Tri-State / Ferguson

Weather History for KHTS - March, 2015

Change the Weather History Date:

Sunday, March 22, 2015

  Actual Average Record
Temperature  
Mean Temperature 48 °F 48 °F  
Max Temperature 57 °F 59 °F 87 °F (1907)
Min Temperature 39 °F 37 °F 14 °F (1914)
Degree Days  
Heating Degree Days 17 17  
Month to date heating degree days 457 457  
Since 1 July heating degree days 4473 3958  
Cooling Degree Days 0 0  
Month to date cooling degree days 0 0  
Year to date cooling degree days 0 0  
Moisture  
Dew Point 29 °F    
Average Humidity 53    
Maximum Humidity 79    
Minimum Humidity 26    
Precipitation  
Precipitation 0.00 in 0.13 in 2.70 in (1952)
Month to date precipitation 6.29 2.78  
Year to date precipitation 11.73 8.82  
Snow  
Snow 0.00 in - - ()
Month to date snowfall 12.8  
Since 1 September snowfall 36.6  
Snow Depth 0.00 in    
Sea Level Pressure  
Sea Level Pressure 30.14 in    
Wind  
Wind Speed 7 mph (NNE)    
Max Wind Speed 13 mph    
Max Gust Speed 18 mph    
Visibility 10 miles    
Events      
T = Trace of Precipitation, MM = Missing Value Source: NWS Daily Summary

Daily Weather History Graph

Daily Weather History Graph

Search for Another Location

Airport or City:

Trip Planner

Search our weather history database for the weather conditions in past years. The results will help you decide how hot, cold, wet, or windy it might be!

Date:

Astronomy

Mar. 22, 2015 Rise Set
Actual Time 7:31 AM EDT 7:43 PM EDT
Civil Twilight 7:04 AM EDT 8:10 PM EDT
Nautical Twilight 6:33 AM EDT 8:41 PM EDT
Astronomical Twilight 6:02 AM EDT 9:12 PM EDT
Moon 8:58 AM EDT (3/22) 10:40 PM EDT (3/22)
Length of Visible Light 13h 05m
Length of Day
12h 12m
Waxing Crescent, 7% of the Moon is Illuminated
Mar 22
Waxing Crescent
Mar 27
First Quarter
Apr 4
Full
Apr 11
Last Quarter
Apr 18
New

Hourly Weather History & Observations

Time (EDT) Temp. Windchill Dew Point Humidity Pressure Visibility Wind Dir Wind Speed Gust Speed Precip Events Conditions
12:51 AM 48.9 °F - 39.0 °F 69% 30.12 in 10.0 mi North 5.8 mph - N/A   Clear
1:51 AM 46.9 °F - 37.9 °F 71% 30.14 in 10.0 mi North 5.8 mph - N/A   Clear
2:51 AM 46.0 °F 44.8 °F 37.0 °F 71% 30.13 in 10.0 mi NNE 3.5 mph - N/A   Clear
3:51 AM 45.0 °F - 37.0 °F 74% 30.13 in 10.0 mi Calm Calm - N/A   Clear
4:51 AM 44.1 °F 40.8 °F 37.0 °F 76% 30.13 in 9.0 mi North 5.8 mph - N/A   Clear
5:51 AM 41.0 °F 37.1 °F 36.0 °F 82% 30.13 in 9.0 mi North 5.8 mph - N/A   Clear
6:51 AM 41.0 °F 38.0 °F 32.0 °F 70% 30.14 in 10.0 mi NNW 4.6 mph - N/A   Clear
7:51 AM 39.9 °F 35.1 °F 30.9 °F 70% 30.15 in 10.0 mi North 6.9 mph - N/A   Clear
8:51 AM 39.9 °F 35.1 °F 30.0 °F 68% 30.18 in 10.0 mi Variable 6.9 mph - N/A   Clear
9:51 AM 41.0 °F 34.7 °F 32.0 °F 70% 30.19 in 10.0 mi NNE 10.4 mph - N/A   Clear
10:51 AM 42.1 °F 37.1 °F 33.1 °F 70% 30.20 in 10.0 mi ENE 8.1 mph - N/A   Clear
11:51 AM 46.9 °F - 35.1 °F 63% 30.19 in 9.0 mi Variable 6.9 mph - N/A   Clear
12:51 PM 48.9 °F - 34.0 °F 56% 30.17 in 10.0 mi East 6.9 mph - N/A   Clear
1:51 PM 52.0 °F - 32.0 °F 47% 30.15 in 10.0 mi NE 5.8 mph - N/A   Clear
2:51 PM 54.0 °F - 32.0 °F 43% 30.12 in 10.0 mi NNE 6.9 mph - N/A   Clear
3:51 PM 55.9 °F - 30.0 °F 37% 30.10 in 10.0 mi North - - N/A   Clear
4:51 PM 55.0 °F - 25.0 °F 31% 30.10 in 10.0 mi NE 10.4 mph - N/A   Clear
5:51 PM 53.1 °F - 21.9 °F 30% 30.09 in 10.0 mi NE 9.2 mph - N/A   Clear
6:51 PM 51.1 °F - 24.1 °F 35% 30.10 in 10.0 mi ENE 6.9 mph - N/A   Clear
7:51 PM 50.0 °F - 21.0 °F 32% 30.10 in 10.0 mi NNE 8.1 mph - N/A   Clear
8:51 PM 48.0 °F - 16.0 °F 28% 30.11 in 10.0 mi NNE 4.6 mph - N/A   Clear
9:51 PM 46.9 °F - 16.0 °F 29% 30.13 in 10.0 mi NNE 5.8 mph - N/A   Clear
10:51 PM 46.0 °F 41.9 °F 16.0 °F 30% 30.13 in 10.0 mi NE 8.1 mph - N/A   Clear
11:51 PM 43.0 °F 38.8 °F 16.0 °F 34% 30.14 in 10.0 mi NE 6.9 mph - N/A   Clear